Time,TemperatureF,DewpointF,PressureIn,WindDirection,WindDirectionDegrees,WindSpeedMPH,WindSpeedGustMPH,Humidity,HourlyPrecipIn,Conditions,Clouds,dailyrainin,SoftwareType,DateUTC
2013-05-30 00:02:00,73.0,66.0,29.82,ESE,123,0.0,6.0,79,0.00,,,0.14,,2013-05-30 05:02:00,
2013-05-30 00:12:00,73.0,66.0,29.82,ESE,123,0.0,6.0,79,0.00,,,0.14,,2013-05-30 05:12:00,
2013-05-30 00:22:00,73.0,66.0,29.83,SE,146,2.0,9.0,79,0.00,,,0.14,,2013-05-30 05:22:00,
2013-05-30 00:32:00,73.0,66.0,29.83,SE,138,1.0,8.0,79,0.00,,,0.13,,2013-05-30 05:32:00,
2013-05-30 00:42:00,73.0,66.0,29.83,SE,138,1.0,8.0,79,0.00,,,0.13,,2013-05-30 05:42:00,
2013-05-30 00:52:00,72.0,65.0,29.83,SE,126,1.0,7.0,80,0.00,,,0.13,,2013-05-30 05:52:00,
2013-05-30 01:01:00,72.0,65.0,29.82,ESE,112,3.0,6.0,80,0.00,,,0.13,,2013-05-30 06:01:00,
2013-05-30 01:12:00,72.0,65.0,29.82,ESE,112,3.0,6.0,80,0.00,,,0.13,,2013-05-30 06:12:00,
2013-05-30 01:22:00,72.0,65.0,29.81,SE,134,3.0,8.0,80,0.00,,,0.13,,2013-05-30 06:22:00,
2013-05-30 01:32:00,72.0,65.0,29.81,SE,133,3.0,8.0,80,0.00,,,0.11,,2013-05-30 06:32:00,
2013-05-30 01:42:00,72.0,65.0,29.81,SE,133,3.0,8.0,80,0.00,,,0.11,,2013-05-30 06:42:00,
2013-05-30 01:52:00,72.0,65.0,29.80,SSE,153,3.0,8.0,79,0.00,,,0.11,,2013-05-30 06:52:00,
2013-05-30 02:01:00,72.0,65.0,29.80,SE,127,2.0,9.0,80,0.00,,,0.11,,2013-05-30 07:01:00,
2013-05-30 02:12:00,72.0,65.0,29.80,SE,127,2.0,9.0,80,0.00,,,0.11,,2013-05-30 07:12:00,
2013-05-30 02:22:00,71.0,65.0,29.79,SE,142,1.0,5.0,82,0.00,,,0.11,,2013-05-30 07:22:00,
2013-05-30 02:32:00,70.0,65.0,29.79,ESE,122,1.0,4.0,83,0.00,,,0.11,,2013-05-30 07:32:00,
2013-05-30 02:42:00,70.0,65.0,29.79,ESE,122,1.0,4.0,83,0.00,,,0.11,,2013-05-30 07:42:00,
2013-05-30 02:52:00,70.0,65.0,29.78,SE,135,2.0,6.0,83,0.00,,,0.11,,2013-05-30 07:52:00,
2013-05-30 03:02:00,69.0,64.0,29.79,SE,139,1.0,4.0,83,0.00,,,0.11,,2013-05-30 08:02:00,
2013-05-30 03:11:00,69.0,64.0,29.79,SE,139,1.0,4.0,83,0.00,,,0.11,,2013-05-30 08:11:00,
2013-05-30 03:21:00,69.0,64.0,29.78,SE,144,1.0,7.0,84,0.00,,,0.11,,2013-05-30 08:21:00,
2013-05-30 03:32:00,69.0,64.0,29.79,SSE,153,1.0,5.0,83,0.00,,,0.11,,2013-05-30 08:32:00,
2013-05-30 03:42:00,69.0,64.0,29.79,SSE,153,1.0,5.0,83,0.00,,,0.11,,2013-05-30 08:42:00,
2013-05-30 03:52:00,70.0,64.0,29.79,SE,130,2.0,6.0,81,0.00,,,0.11,,2013-05-30 08:52:00,
2013-05-30 04:01:00,71.0,64.0,29.78,ESE,121,3.0,10.0,79,0.00,,,0.11,,2013-05-30 09:01:00,
2013-05-30 04:11:00,71.0,64.0,29.78,ESE,121,3.0,10.0,79,0.00,,,0.11,,2013-05-30 09:11:00,
2013-05-30 04:21:00,71.0,64.0,29.78,SE,143,4.0,8.0,79,0.00,,,0.11,,2013-05-30 09:21:00,
2013-05-30 04:33:00,71.0,65.0,29.78,SE,128,3.0,10.0,80,0.00,,,0.10,,2013-05-30 09:33:00,
2013-05-30 04:42:00,71.0,65.0,29.78,SE,128,3.0,10.0,80,0.00,,,0.10,,2013-05-30 09:42:00,
2013-05-30 04:53:00,71.0,65.0,29.78,SSE,155,2.0,11.0,80,0.00,,,0.10,,2013-05-30 09:53:00,
2013-05-30 05:03:00,71.0,65.0,29.78,SE,128,4.0,11.0,80,0.00,,,0.10,,2013-05-30 10:03:00,
2013-05-30 05:12:00,71.0,65.0,29.78,SE,128,4.0,11.0,80,0.00,,,0.10,,2013-05-30 10:12:00,
2013-05-30 05:23:00,71.0,65.0,29.78,SSW,195,2.0,7.0,80,0.00,,,0.10,,2013-05-30 10:23:00,
2013-05-30 05:32:00,71.0,65.0,29.78,ESE,116,3.0,7.0,80,0.00,,,0.01,,2013-05-30 10:32:00,
2013-05-30 05:42:00,71.0,65.0,29.78,ESE,116,3.0,7.0,80,0.00,,,0.01,,2013-05-30 10:42:00,
2013-05-30 05:52:00,71.0,65.0,29.78,SW,233,3.0,7.0,81,0.00,,,0.01,,2013-05-30 10:52:00,
2013-05-30 06:03:00,70.0,64.0,29.78,SSE,161,1.0,8.0,81,0.00,,,0.01,,2013-05-30 11:03:00,
2013-05-30 06:12:00,70.0,64.0,29.78,SSE,161,1.0,8.0,81,0.00,,,0.01,,2013-05-30 11:12:00,
2013-05-30 06:22:00,71.0,65.0,29.78,ESE,117,4.0,10.0,81,0.00,,,0.01,,2013-05-30 11:22:00,
2013-05-30 06:32:00,71.0,65.0,29.78,SE,136,2.0,9.0,81,0.00,,,0.00,,2013-05-30 11:32:00,
2013-05-30 06:42:00,71.0,65.0,29.78,SE,136,2.0,9.0,81,0.00,,,0.00,,2013-05-30 11:42:00,
2013-05-30 06:52:00,71.0,65.0,29.78,ESE,118,2.0,8.0,81,0.00,,,0.00,,2013-05-30 11:52:00,
2013-05-30 07:01:00,71.0,65.0,29.79,SE,128,2.0,8.0,81,0.00,,,0.00,,2013-05-30 12:01:00,
2013-05-30 07:11:00,71.0,65.0,29.79,SE,128,2.0,8.0,81,0.00,,,0.00,,2013-05-30 12:11:00,
2013-05-30 07:22:00,72.0,66.0,29.79,SE,140,1.0,10.0,81,0.00,,,0.00,,2013-05-30 12:22:00,
2013-05-30 07:32:00,72.0,66.0,29.78,ESE,117,3.0,8.0,81,0.00,,,0.00,,2013-05-30 12:32:00,
2013-05-30 07:42:00,72.0,66.0,29.78,ESE,117,3.0,8.0,81,0.00,,,0.00,,2013-05-30 12:42:00,
2013-05-30 07:52:00,73.0,66.0,29.79,SE,132,4.0,11.0,79,0.00,,,0.00,,2013-05-30 12:52:00,
2013-05-30 08:01:00,74.0,67.0,29.79,SE,143,2.0,9.0,78,0.00,,,0.00,,2013-05-30 13:01:00,
2013-05-30 08:11:00,74.0,67.0,29.79,SE,143,2.0,9.0,78,0.00,,,0.00,,2013-05-30 13:11:00,
2013-05-30 08:22:00,76.0,68.0,29.78,West,266,3.0,13.0,76,0.00,,,0.00,,2013-05-30 13:22:00,
2013-05-30 08:32:00,76.0,67.0,29.78,SE,131,3.0,10.0,75,0.00,,,0.00,,2013-05-30 13:32:00,
2013-05-30 08:42:00,76.0,67.0,29.78,SE,131,3.0,10.0,75,0.00,,,0.00,,2013-05-30 13:42:00,
2013-05-30 08:52:00,76.0,67.0,29.78,SSE,149,5.0,17.0,74,0.00,,,0.00,,2013-05-30 13:52:00,
2013-05-30 09:01:00,77.0,68.0,29.78,South,184,7.0,16.0,74,0.00,,,0.00,,2013-05-30 14:01:00,
2013-05-30 09:11:00,77.0,68.0,29.78,South,184,7.0,16.0,74,0.00,,,0.00,,2013-05-30 14:11:00,
2013-05-30 09:22:00,78.0,69.0,29.78,West,265,5.0,13.0,73,0.00,,,0.00,,2013-05-30 14:22:00,
2013-05-30 09:32:00,78.0,68.0,29.77,ESE,121,6.0,18.0,72,0.00,,,0.00,,2013-05-30 14:32:00,
2013-05-30 09:42:00,78.0,68.0,29.77,ESE,121,6.0,18.0,72,0.00,,,0.00,,2013-05-30 14:42:00,
2013-05-30 09:52:00,78.0,68.0,29.76,SE,146,5.0,11.0,72,0.00,,,0.00,,2013-05-30 14:52:00,
2013-05-30 10:01:00,79.0,68.0,29.77,West,259,5.0,12.0,70,0.00,,,0.00,,2013-05-30 15:01:00,
2013-05-30 10:11:00,79.0,68.0,29.77,West,259,5.0,12.0,70,0.00,,,0.00,,2013-05-30 15:11:00,
2013-05-30 10:22:00,79.0,69.0,29.77,SE,128,2.0,12.0,71,0.00,,,0.00,,2013-05-30 15:22:00,
2013-05-30 10:33:00,80.0,69.0,29.78,SE,137,4.0,13.0,70,0.00,,,0.00,,2013-05-30 15:33:00,
2013-05-30 10:42:00,80.0,69.0,29.78,SE,137,4.0,13.0,70,0.00,,,0.00,,2013-05-30 15:42:00,
2013-05-30 10:52:00,80.0,69.0,29.78,SE,130,1.0,11.0,70,0.00,,,0.00,,2013-05-30 15:52:00,
2013-05-30 11:03:00,81.0,70.0,29.78,ESE,120,3.0,14.0,69,0.00,,,0.00,,2013-05-30 16:03:00,
2013-05-30 11:12:00,81.0,70.0,29.78,ESE,120,3.0,14.0,69,0.00,,,0.00,,2013-05-30 16:12:00,
2013-05-30 11:22:00,80.0,68.0,29.77,WSW,246,5.0,17.0,68,0.00,,,0.00,,2013-05-30 16:22:00,
2013-05-30 11:33:00,81.0,69.0,29.77,ESE,107,3.0,14.0,67,0.00,,,0.00,,2013-05-30 16:33:00,
2013-05-30 11:42:00,81.0,69.0,29.77,ESE,107,3.0,14.0,67,0.00,,,0.00,,2013-05-30 16:42:00,
2013-05-30 11:52:00,81.0,69.0,29.77,ENE,59,4.0,14.0,68,0.00,,,0.00,,2013-05-30 16:52:00,
2013-05-30 12:02:00,81.0,69.0,29.77,ESE,117,7.0,16.0,66,0.00,,,0.00,,2013-05-30 17:02:00,
2013-05-30 12:11:00,81.0,69.0,29.77,ESE,117,7.0,16.0,66,0.00,,,0.00,,2013-05-30 17:11:00,
2013-05-30 12:22:00,80.0,68.0,29.77,SE,132,7.0,16.0,68,0.00,,,0.00,,2013-05-30 17:22:00,
2013-05-30 12:32:00,81.0,69.0,29.77,SE,139,8.0,15.0,66,0.00,,,0.00,,2013-05-30 17:32:00,
2013-05-30 12:42:00,81.0,69.0,29.77,SE,139,8.0,15.0,66,0.00,,,0.00,,2013-05-30 17:42:00,
2013-05-30 12:52:00,82.0,69.0,29.77,ESE,116,6.0,22.0,65,0.00,,,0.00,,2013-05-30 17:52:00,
2013-05-30 13:02:00,82.0,68.0,29.77,ESE,103,7.0,18.0,63,0.00,,,0.00,,2013-05-30 18:02:00,
2013-05-30 13:11:00,82.0,68.0,29.77,ESE,103,7.0,18.0,63,0.00,,,0.00,,2013-05-30 18:11:00,
2013-05-30 13:22:00,82.0,69.0,29.77,SSW,212,5.0,15.0,64,0.00,,,0.00,,2013-05-30 18:22:00,
2013-05-30 13:32:00,82.0,69.0,29.76,ESE,115,6.0,14.0,65,0.00,,,0.00,,2013-05-30 18:32:00,
2013-05-30 13:42:00,82.0,69.0,29.76,ESE,115,6.0,14.0,65,0.00,,,0.00,,2013-05-30 18:42:00,
2013-05-30 13:51:00,80.0,69.0,29.76,SE,129,4.0,13.0,69,0.00,,,0.00,,2013-05-30 18:51:00,
2013-05-30 14:01:00,81.0,69.0,29.75,SE,133,5.0,13.0,66,0.00,,,0.00,,2013-05-30 19:01:00,
2013-05-30 14:11:00,81.0,69.0,29.75,SE,133,5.0,13.0,66,0.00,,,0.00,,2013-05-30 19:11:00,
2013-05-30 14:23:00,79.0,70.0,29.74,ESE,114,4.0,9.0,74,0.00,,,0.00,,2013-05-30 19:23:00,
2013-05-30 14:32:00,74.0,68.0,29.73,SE,138,3.0,11.0,81,0.16,,,0.16,,2013-05-30 19:32:00,
2013-05-30 14:42:00,74.0,68.0,29.73,SE,138,3.0,11.0,81,0.16,,,0.16,,2013-05-30 19:42:00,
2013-05-30 14:52:00,75.0,71.0,29.73,South,191,2.0,10.0,88,0.16,,,0.16,,2013-05-30 19:52:00,
2013-05-30 15:01:00,78.0,72.0,29.72,SE,138,1.0,7.0,81,0.16,,,0.16,,2013-05-30 20:01:00,
2013-05-30 15:11:00,78.0,72.0,29.72,SE,138,1.0,7.0,81,0.16,,,0.16,,2013-05-30 20:11:00,
2013-05-30 15:22:00,81.0,71.0,29.71,ESE,121,4.0,12.0,72,0.16,,,0.16,,2013-05-30 20:22:00,
2013-05-30 15:33:00,82.0,69.0,29.70,SE,144,6.0,15.0,66,0.00,,,0.16,,2013-05-30 20:33:00,
2013-05-30 15:42:00,82.0,69.0,29.70,SE,144,6.0,15.0,66,0.00,,,0.16,,2013-05-30 20:42:00,
2013-05-30 15:52:00,82.0,69.0,29.70,ESE,113,5.0,17.0,66,0.00,,,0.16,,2013-05-30 20:52:00,
2013-05-30 16:01:00,81.0,69.0,29.69,SE,136,3.0,11.0,67,0.00,,,0.16,,2013-05-30 21:01:00,
2013-05-30 16:11:00,81.0,69.0,29.69,SE,136,3.0,11.0,67,0.00,,,0.16,,2013-05-30 21:11:00,
2013-05-30 16:22:00,83.0,69.0,29.68,ESE,111,3.0,12.0,63,0.00,,,0.16,,2013-05-30 21:22:00,
2013-05-30 16:33:00,83.0,68.0,29.68,East,95,2.0,10.0,61,0.00,,,0.16,,2013-05-30 21:33:00,
2013-05-30 16:42:00,83.0,68.0,29.68,East,95,2.0,10.0,61,0.00,,,0.16,,2013-05-30 21:42:00,
2013-05-30 16:53:00,81.0,69.0,29.68,SE,134,3.0,10.0,66,0.00,,,0.16,,2013-05-30 21:53:00,
2013-05-30 17:02:00,80.0,68.0,29.69,SW,216,2.0,12.0,68,0.00,,,0.16,,2013-05-30 22:02:00,
2013-05-30 17:12:00,80.0,68.0,29.69,SW,216,2.0,12.0,68,0.00,,,0.16,,2013-05-30 22:12:00,
2013-05-30 17:23:00,82.0,69.0,29.69,SSE,149,7.0,14.0,65,0.00,,,0.16,,2013-05-30 22:23:00,
2013-05-30 17:33:00,81.0,69.0,29.68,SE,142,5.0,15.0,66,0.00,,,0.16,,2013-05-30 22:33:00,
2013-05-30 17:42:00,81.0,69.0,29.68,SE,142,5.0,15.0,66,0.00,,,0.16,,2013-05-30 22:42:00,
2013-05-30 17:52:00,82.0,69.0,29.67,SSE,158,6.0,16.0,65,0.00,,,0.16,,2013-05-30 22:52:00,
2013-05-30 18:02:00,81.0,69.0,29.65,ESE,103,5.0,15.0,66,0.00,,,0.16,,2013-05-30 23:02:00,
2013-05-30 18:11:00,81.0,69.0,29.65,ESE,103,5.0,15.0,66,0.00,,,0.16,,2013-05-30 23:11:00,
2013-05-30 18:22:00,80.0,69.0,29.67,SSW,209,6.0,15.0,69,0.00,,,0.16,,2013-05-30 23:22:00,
2013-05-30 18:32:00,69.0,62.0,29.73,West,261,5.0,20.0,79,0.04,,,0.20,,2013-05-30 23:32:00,
2013-05-30 18:41:00,69.0,62.0,29.73,West,261,5.0,20.0,79,0.04,,,0.20,,2013-05-30 23:41:00,
2013-05-30 18:52:00,64.0,60.0,29.75,West,267,3.0,12.0,88,0.17,,,0.33,,2013-05-30 23:52:00,
2013-05-30 19:01:00,64.0,61.0,29.77,WSW,244,2.0,9.0,89,0.24,,,0.40,,2013-05-31 00:01:00,
2013-05-30 19:11:00,64.0,61.0,29.77,WSW,244,2.0,9.0,89,0.24,,,0.40,,2013-05-31 00:11:00,
2013-05-30 19:22:00,63.0,60.0,29.75,ESE,109,1.0,6.0,91,0.28,,,0.44,,2013-05-31 00:22:00,
2013-05-30 19:32:00,63.0,60.0,29.74,South,172,0.0,4.0,91,0.24,,,0.46,,2013-05-31 00:32:00,
2013-05-30 19:42:00,63.0,60.0,29.74,South,172,0.0,4.0,91,0.24,,,0.46,,2013-05-31 00:42:00,
2013-05-30 19:52:00,63.0,60.0,29.75,SW,235,0.0,3.0,91,0.13,,,0.46,,2013-05-31 00:52:00,
2013-05-30 20:01:00,63.0,60.0,29.77,SE,126,0.0,4.0,91,0.12,,,0.52,,2013-05-31 01:01:00,
2013-05-30 20:12:00,63.0,60.0,29.77,SE,126,0.0,4.0,91,0.12,,,0.52,,2013-05-31 01:12:00,
2013-05-30 20:21:00,63.0,60.0,29.77,ESE,123,2.0,11.0,91,0.16,,,0.61,,2013-05-31 01:21:00,
2013-05-30 20:32:00,62.0,60.0,29.76,SSE,148,1.0,5.0,92,0.18,,,0.64,,2013-05-31 01:32:00,
2013-05-30 20:42:00,62.0,60.0,29.76,SSE,148,1.0,5.0,92,0.18,,,0.64,,2013-05-31 01:42:00,
2013-05-30 20:52:00,62.0,60.0,29.76,SSE,148,1.0,5.0,92,0.18,,,0.64,,2013-05-31 01:52:00,
2013-05-30 21:02:00,63.0,61.0,29.76,SSE,159,1.0,6.0,92,0.15,,,0.67,,2013-05-31 02:02:00,
2013-05-30 21:11:00,63.0,61.0,29.76,SSE,159,1.0,6.0,92,0.15,,,0.67,,2013-05-31 02:11:00,
2013-05-30 21:22:00,63.0,61.0,29.76,SSW,211,0.0,5.0,92,0.07,,,0.68,,2013-05-31 02:22:00,
2013-05-30 21:32:00,63.0,61.0,29.78,SE,138,2.0,5.0,92,0.05,,,0.69,,2013-05-31 02:32:00,
2013-05-30 21:41:00,63.0,61.0,29.78,SE,138,2.0,5.0,92,0.05,,,0.69,,2013-05-31 02:41:00,
2013-05-30 21:52:00,63.0,61.0,29.77,SE,126,2.0,7.0,92,0.07,,,0.74,,2013-05-31 02:52:00,
2013-05-30 22:01:00,63.0,61.0,29.78,SE,136,1.0,5.0,93,0.10,,,0.77,,2013-05-31 03:01:00,
2013-05-30 22:11:00,63.0,61.0,29.78,SE,136,1.0,5.0,93,0.10,,,0.77,,2013-05-31 03:11:00,
2013-05-30 22:21:00,63.0,61.0,29.78,SSE,149,1.0,4.0,93,0.12,,,0.80,,2013-05-31 03:21:00,
2013-05-30 22:33:00,63.0,61.0,29.79,SE,136,1.0,7.0,93,0.16,,,0.86,,2013-05-31 03:33:00,
2013-05-30 22:43:00,63.0,61.0,29.79,SE,136,1.0,7.0,93,0.16,,,0.86,,2013-05-31 03:43:00,
2013-05-30 22:53:00,63.0,61.0,29.76,SE,130,3.0,9.0,94,0.14,,,0.88,,2013-05-31 03:53:00,
2013-05-30 23:02:00,62.0,60.0,29.75,SSE,154,4.0,11.0,94,0.11,,,0.88,,2013-05-31 04:02:00,
2013-05-30 23:12:00,62.0,60.0,29.75,SSE,154,4.0,11.0,94,0.11,,,0.88,,2013-05-31 04:12:00,
2013-05-30 23:22:00,62.0,60.0,29.75,SE,127,4.0,11.0,94,0.07,,,0.88,,2013-05-31 04:22:00,
2013-05-30 23:32:00,62.0,60.0,29.75,SE,139,3.0,9.0,94,0.02,,,0.88,,2013-05-31 04:32:00,
2013-05-30 23:42:00,62.0,60.0,29.75,SE,139,3.0,9.0,94,0.02,,,0.88,,2013-05-31 04:42:00,
2013-05-30 23:53:00,62.0,60.0,29.74,SE,137,1.0,7.0,94,0.00,,,0.88,,2013-05-31 04:53:00,